Flag for Germany Weather past 2 weeks in Halle, Saxony-Anhalt, Germany

Now
37 °F

Partly sunny.


Feels Like: 28 °F
Forecast: 34 / 45 °F
Wind: 17 mph from Northwest

Location: Leipzig-Schkeuditz

Current Time: Apr 2, 2015 at 12:24:01 PM

Latest Report: Apr 2, 2015 at 11:50 AM


Visibility: N/A

Pressure: 29.71 "Hg

Humidity: 87%

Dew point: 34 °F

Location of HalleLocation

Historic Weather in Halle — Graph

°F

Halle temperature yesterday

Maximum temperature yesterday: 46 °F (at 2:20 PM)
Minimum temperature yesterday: 34 °F (at 6:50 PM)
Average temperature yesterday: 38 °F

Past Weeks' High & Low Weather Summary

 TemperatureHumidityPressure
High63 °F (Mar 25, 2:50 PM)100% (Mar 21, 5:50 AM)30.33 "Hg (Mar 21, 5:50 AM)
Low25 °F (Mar 23, 2:50 AM)28% (Mar 19, 3:20 PM)29.12 "Hg (Mar 31, 9:20 AM)
Average43 °F75%29.88 "Hg
* Reported Mar 18 9:20 AM — Apr 2 10:50 AM, Halle, Weather by CustomWeather, © 2015

Note: Actual official high and low records may vary slightly from our data, if they occured in-between our weather recording intervals... More about our weather records

Advertising

Halle weather history for previous 24 hours

 ConditionsComfort  
Time TempWeatherWind HumidityBarometerVisibility
10:50 AM
Thu, Apr 2
36 °FPartly sunny.13 mph100%29.68 "HgN/A
10:20 AM34 °FPartly sunny.12 mph100%29.68 "HgN/A
9:50 AM34 °FPartly sunny.12 mph100%29.68 "HgN/A
9:20 AM32 °FLight snow. Overcast.14 mph100%29.68 "HgN/A
8:50 AM32 °FSnow. Ice fog.12 mph100%29.68 "Hg1 mi
8:20 AM32 °FLight snow. Ice fog.13 mph100%29.68 "Hg1 mi
7:50 AM32 °FLight snow. Ice fog.12 mph100%29.68 "Hg1 mi
7:20 AM32 °FLight snow. Passing clouds.14 mph100%29.68 "Hg1 mi
6:50 AM34 °FSnow flurries. Partly cloudy.23 mph93%29.68 "Hg1 mi
6:20 AM39 °FLight rain. Passing clouds.24 mph87%29.68 "HgN/A
5:50 AM39 °FLight rain. Passing clouds.24 mph87%29.68 "HgN/A
5:20 AM37 °FLight rain. Passing clouds.20 mph93%29.71 "HgN/A
4:50 AM36 °FLight rain. Partly cloudy.21 mph100%29.74 "HgN/A
4:20 AM36 °FPassing clouds.20 mph100%29.77 "HgN/A
3:50 AM34 °FLight rain. Passing clouds.21 mph100%29.77 "HgN/A
3:20 AM34 °FLight rain. Partly cloudy.16 mph100%29.80 "HgN/A
2:50 AM34 °FSnow. Passing clouds.24 mph100%29.83 "Hg1 mi
2:20 AM36 °FLight rain. Partly cloudy.17 mph93%29.86 "HgN/A
1:50 AM36 °FPartly cloudy.13 mph87%29.86 "HgN/A
1:20 AM34 °FClear.14 mph93%29.89 "Hg10 mi
12:50 AM34 °FPassing clouds.14 mph93%29.89 "HgN/A
12:20 AM34 °FPassing clouds.16 mph93%29.92 "HgN/A
11:50 PM
Wed, Apr 1
34 °FPassing clouds.10 mph100%29.92 "HgN/A
11:20 PM34 °FPassing clouds.12 mph100%29.92 "HgN/A
10:50 PM34 °FSnow flurries. Partly cloudy.16 mph100%29.92 "HgN/A
10:20 PM34 °FSnow flurries. Passing clouds.20 mph100%29.92 "Hg3 mi
9:50 PM36 °FSprinkles. Partly cloudy.23 mph93%29.92 "Hg5 mi
9:20 PM36 °FSnow flurries. Partly cloudy.17 mph93%29.92 "HgN/A
8:50 PM36 °FPartly cloudy.17 mph93%29.92 "HgN/A
8:20 PM36 °FBroken clouds.17 mph93%29.89 "HgN/A
7:50 PM36 °FSnow flurries. Broken clouds.17 mph93%29.89 "HgN/A
7:20 PM36 °FSnow flurries. Broken clouds.20 mph93%29.89 "HgN/A
6:50 PM34 °FSnow flurries. Broken clouds.13 mph100%29.89 "HgN/A
6:20 PM36 °FSnow showers. Partly sunny.15 mph87%29.89 "Hg2 mi
5:50 PM39 °FPartly sunny.17 mph75%29.89 "HgN/A
5:20 PM41 °FBroken clouds.26 mph70%29.86 "HgN/A
4:50 PM41 °FPartly sunny.29 mph76%29.86 "HgN/A
4:20 PM41 °FPartly sunny.30 mph70%29.86 "HgN/A
3:50 PM41 °FScattered clouds.31 mph70%29.86 "HgN/A
3:20 PM45 °FBroken clouds.23 mph61%29.83 "HgN/A
2:50 PM43 °FScattered showers. Scattered clouds.16 mph61%29.83 "HgN/A
2:20 PM46 °FScattered showers. Scattered clouds.23 mph53%29.83 "HgN/A
1:50 PM45 °FSnow flurries. Scattered clouds.23 mph61%29.83 "HgN/A
1:20 PM45 °FScattered showers. Partly sunny.23 mph57%29.83 "HgN/A
12:50 PM43 °FScattered showers. Partly sunny.20 mph61%29.83 "HgN/A
12:20 PM43 °FScattered showers. Partly sunny.23 mph76%29.80 "HgN/A
Weather by CustomWeather, © 2015

See weather overviewHow to use our weather pages